Time,TemperatureF,DewpointF,PressureIn,WindDirection,WindDirectionDegrees,WindSpeedMPH,WindSpeedGustMPH,Humidity,HourlyPrecipIn,Conditions,Clouds,dailyrainin,SoftwareType,DateUTC
2013-05-21 00:01:00,76.9,73.4,29.92,SSE,158,1.5,6.0,89,0.00,,BKN018,0.00,VWS V14.01,2013-05-21 05:01:00,
2013-05-21 00:06:00,76.7,73.2,29.92,South,188,4.5,6.0,89,0.00,,BKN018,0.00,VWS V14.01,2013-05-21 05:06:00,
2013-05-21 00:11:00,76.7,73.2,29.92,SSW,205,3.0,10.5,89,0.00,,BKN018,0.00,VWS V14.01,2013-05-21 05:11:00,
2013-05-21 00:16:00,76.7,73.2,29.92,SSW,194,3.0,7.5,89,0.00,,BKN018,0.00,VWS V14.01,2013-05-21 05:16:00,
2013-05-21 00:21:00,76.6,73.1,29.92,South,170,1.5,6.0,89,0.00,,BKN018,0.00,VWS V14.01,2013-05-21 05:21:00,
2013-05-21 00:26:00,76.5,73.0,29.92,South,184,0.0,3.0,89,0.00,,BKN018,0.00,VWS V14.01,2013-05-21 05:26:00,
2013-05-21 00:31:00,76.4,72.9,29.92,SSW,195,0.0,4.5,89,0.00,,BKN018,0.00,VWS V14.01,2013-05-21 05:31:00,
2013-05-21 00:36:00,76.3,72.8,29.92,South,185,1.5,4.5,89,0.00,,BKN018,0.00,VWS V14.01,2013-05-21 05:36:00,
2013-05-21 00:41:00,76.2,72.7,29.92,SE,142,1.5,6.0,89,0.00,,BKN018,0.00,VWS V14.01,2013-05-21 05:41:00,
2013-05-21 00:46:00,76.2,72.7,29.91,South,173,3.0,4.5,89,0.00,,BKN018,0.00,VWS V14.01,2013-05-21 05:46:00,
2013-05-21 00:51:00,76.2,72.7,29.92,South,175,3.0,7.5,89,0.00,,BKN018,0.00,VWS V14.01,2013-05-21 05:51:00,
2013-05-21 00:56:00,76.2,72.7,29.92,SSE,165,6.0,6.0,89,0.00,,BKN018,0.00,VWS V14.01,2013-05-21 05:56:00,
2013-05-21 01:01:00,76.1,72.6,29.92,South,182,3.0,6.0,89,0.00,,BKN016,0.00,VWS V14.01,2013-05-21 06:01:00,
2013-05-21 01:06:00,76.2,72.7,29.92,SSE,154,4.5,7.5,89,0.00,,BKN016,0.00,VWS V14.01,2013-05-21 06:06:00,
2013-05-21 01:11:00,76.2,72.7,29.92,South,177,3.0,4.5,89,0.00,,BKN016,0.00,VWS V14.01,2013-05-21 06:11:00,
2013-05-21 01:16:00,76.2,72.7,29.92,SSE,153,1.5,6.0,89,0.00,,BKN016,0.00,VWS V14.01,2013-05-21 06:16:00,
2013-05-21 01:21:00,76.1,72.6,29.92,SSW,193,1.5,6.0,89,0.00,,BKN014,0.00,VWS V14.01,2013-05-21 06:21:00,
2013-05-21 01:26:00,76.0,72.5,29.92,SSE,165,1.5,3.0,89,0.00,,BKN014,0.00,VWS V14.01,2013-05-21 06:26:00,
2013-05-21 01:31:00,76.0,72.5,29.92,South,186,1.5,7.5,89,0.00,,BKN014,0.00,VWS V14.01,2013-05-21 06:31:00,
2013-05-21 01:36:00,76.0,72.5,29.92,South,189,0.0,4.5,89,0.00,,BKN014,0.00,VWS V14.01,2013-05-21 06:36:00,
2013-05-21 01:41:00,76.0,72.5,29.91,SW,229,1.5,7.5,89,0.00,,BKN014,0.00,VWS V14.01,2013-05-21 06:41:00,
2013-05-21 01:46:00,76.0,72.5,29.91,SSE,164,1.5,6.0,89,0.00,,BKN014,0.00,VWS V14.01,2013-05-21 06:46:00,
2013-05-21 01:51:00,76.0,72.5,29.91,South,172,0.0,3.0,89,0.00,,BKN014,0.00,VWS V14.01,2013-05-21 06:51:00,
2013-05-21 01:56:00,76.0,72.5,29.91,South,188,4.5,4.5,89,0.00,,BKN014,0.00,VWS V14.01,2013-05-21 06:56:00,
2013-05-21 02:01:00,76.0,72.5,29.91,South,186,3.0,9.0,89,0.00,,OVC021,0.00,VWS V14.01,2013-05-21 07:01:00,
2013-05-21 02:06:00,76.0,72.5,29.91,South,179,0.0,6.0,89,0.00,,OVC021,0.00,VWS V14.01,2013-05-21 07:06:00,
2013-05-21 02:11:00,76.1,72.6,29.91,South,176,1.5,4.5,89,0.00,,OVC021,0.00,VWS V14.01,2013-05-21 07:11:00,
2013-05-21 02:16:00,76.1,72.6,29.91,South,182,3.0,7.5,89,0.00,,OVC021,0.00,VWS V14.01,2013-05-21 07:16:00,
2013-05-21 02:21:00,76.2,72.7,29.91,SSE,165,1.5,10.5,89,0.00,,OVC021,0.00,VWS V14.01,2013-05-21 07:21:00,
2013-05-21 02:26:00,76.3,72.8,29.91,SSW,199,3.0,7.5,89,0.00,,OVC021,0.00,VWS V14.01,2013-05-21 07:26:00,
2013-05-21 02:31:00,76.3,72.8,29.91,South,184,0.0,4.5,89,0.00,,OVC021,0.00,VWS V14.01,2013-05-21 07:31:00,
2013-05-21 02:36:00,76.2,72.7,29.90,South,178,1.5,7.5,89,0.00,,OVC021,0.00,VWS V14.01,2013-05-21 07:36:00,
2013-05-21 02:41:00,76.2,72.7,29.90,SSW,192,3.0,9.0,89,0.00,,OVC021,0.00,VWS V14.01,2013-05-21 07:41:00,
2013-05-21 02:46:00,76.1,72.6,29.90,SSW,195,1.5,4.5,89,0.00,,OVC021,0.00,VWS V14.01,2013-05-21 07:46:00,
2013-05-21 02:51:00,76.0,72.5,29.90,South,181,1.5,6.0,89,0.00,,OVC021,0.00,VWS V14.01,2013-05-21 07:51:00,
2013-05-21 02:56:00,75.9,72.4,29.90,South,189,1.5,4.5,89,0.00,,OVC021,0.00,VWS V14.01,2013-05-21 07:56:00,
2013-05-21 03:01:00,75.8,72.3,29.90,South,180,3.0,6.0,89,0.00,,OVC028,0.00,VWS V14.01,2013-05-21 08:01:00,
2013-05-21 03:06:00,75.7,72.6,29.90,South,173,3.0,4.5,90,0.00,,OVC028,0.00,VWS V14.01,2013-05-21 08:06:00,
2013-05-21 03:11:00,75.7,72.6,29.90,South,188,3.0,9.0,90,0.00,,OVC028,0.00,VWS V14.01,2013-05-21 08:11:00,
2013-05-21 03:16:00,75.7,72.6,29.90,SSW,194,3.0,9.0,90,0.00,,OVC028,0.00,VWS V14.01,2013-05-21 08:16:00,
2013-05-21 03:21:00,75.8,72.7,29.90,SSW,209,9.0,9.0,90,0.00,,OVC028,0.00,VWS V14.01,2013-05-21 08:21:00,
2013-05-21 03:26:00,75.8,72.7,29.89,South,177,4.5,4.5,90,0.00,,OVC028,0.00,VWS V14.01,2013-05-21 08:26:00,
2013-05-21 03:31:00,75.9,72.8,29.89,South,176,0.0,7.5,90,0.00,,OVC028,0.00,VWS V14.01,2013-05-21 08:31:00,
2013-05-21 03:36:00,75.9,72.4,29.89,SSW,198,6.0,9.0,89,0.00,,OVC028,0.00,VWS V14.01,2013-05-21 08:36:00,
2013-05-21 03:41:00,75.9,72.4,29.89,SSE,157,4.5,7.5,89,0.00,,OVC028,0.00,VWS V14.01,2013-05-21 08:41:00,
2013-05-21 03:46:00,75.9,72.4,29.89,SSW,195,4.5,7.5,89,0.00,,OVC028,0.00,VWS V14.01,2013-05-21 08:46:00,
2013-05-21 03:51:00,75.9,72.4,29.90,SSE,153,1.5,6.0,89,0.00,,OVC028,0.00,VWS V14.01,2013-05-21 08:51:00,
2013-05-21 03:56:00,75.8,72.7,29.90,South,175,3.0,7.5,90,0.00,,OVC028,0.00,VWS V14.01,2013-05-21 08:56:00,
2013-05-21 04:00:00,75.8,72.7,29.90,SW,229,0.0,6.0,90,0.00,,OVC029,0.00,VWS V14.01,2013-05-21 09:00:00,
2013-05-21 04:05:00,75.7,72.6,29.89,South,173,1.5,4.5,90,0.00,,OVC029,0.00,VWS V14.01,2013-05-21 09:05:00,
2013-05-21 04:10:00,75.6,72.5,29.89,South,178,3.0,7.5,90,0.00,,OVC029,0.00,VWS V14.01,2013-05-21 09:10:00,
2013-05-21 04:15:00,75.5,72.4,29.89,SSW,194,1.5,6.0,90,0.00,,OVC029,0.00,VWS V14.01,2013-05-21 09:15:00,
2013-05-21 04:20:00,75.4,72.3,29.89,South,186,1.5,7.5,90,0.00,,OVC029,0.00,VWS V14.01,2013-05-21 09:20:00,
2013-05-21 04:25:00,75.3,72.2,29.89,SSW,192,4.5,4.5,90,0.00,,OVC029,0.00,VWS V14.01,2013-05-21 09:25:00,
2013-05-21 04:30:00,75.2,72.1,29.89,SSW,213,0.0,4.5,90,0.00,,OVC031,0.00,VWS V14.01,2013-05-21 09:30:00,
2013-05-21 04:35:00,75.1,72.0,29.90,South,174,0.0,3.0,90,0.00,,OVC031,0.00,VWS V14.01,2013-05-21 09:35:00,
2013-05-21 04:40:00,74.9,71.8,29.89,SSW,200,0.0,3.0,90,0.00,,OVC031,0.00,VWS V14.01,2013-05-21 09:40:00,
2013-05-21 04:45:00,74.8,71.7,29.89,SSW,194,0.0,3.0,90,0.00,,OVC031,0.00,VWS V14.01,2013-05-21 09:45:00,
2013-05-21 04:50:00,74.7,71.6,29.90,South,188,0.0,4.5,90,0.00,,OVC031,0.00,VWS V14.01,2013-05-21 09:50:00,
2013-05-21 04:55:00,74.6,71.5,29.90,SSE,165,0.0,3.0,90,0.00,,OVC031,0.00,VWS V14.01,2013-05-21 09:55:00,
2013-05-21 05:00:00,74.5,71.4,29.90,SSE,165,0.0,1.5,90,0.00,,BKN031,0.00,VWS V14.01,2013-05-21 10:00:00,
2013-05-21 05:05:00,74.5,71.7,29.90,SSE,165,0.0,1.5,91,0.00,,BKN031,0.00,VWS V14.01,2013-05-21 10:05:00,
2013-05-21 05:10:00,74.4,71.6,29.90,SSE,165,1.5,3.0,91,0.00,,BKN031,0.00,VWS V14.01,2013-05-21 10:10:00,
2013-05-21 05:15:00,74.5,71.7,29.90,SSE,161,4.5,4.5,91,0.00,,BKN031,0.00,VWS V14.01,2013-05-21 10:15:00,
2013-05-21 05:20:00,74.5,71.7,29.90,SSE,161,0.0,1.5,91,0.00,,BKN012,0.00,VWS V14.01,2013-05-21 10:20:00,
2013-05-21 05:25:00,74.4,71.6,29.90,SSE,161,1.5,3.0,91,0.00,,BKN012,0.00,VWS V14.01,2013-05-21 10:25:00,
2013-05-21 05:30:00,74.3,71.5,29.90,SSE,161,0.0,1.5,91,0.00,,BKN012,0.00,VWS V14.01,2013-05-21 10:30:00,
2013-05-21 05:35:00,74.2,71.4,29.90,SSE,161,0.0,0.0,91,0.00,,BKN012,0.00,VWS V14.01,2013-05-21 10:35:00,
2013-05-21 05:40:00,74.1,71.3,29.90,SSE,161,0.0,0.0,91,0.00,,BKN012,0.00,VWS V14.01,2013-05-21 10:40:00,
2013-05-21 05:45:00,74.0,71.2,29.90,SSE,161,0.0,0.0,91,0.00,,BKN012,0.00,VWS V14.01,2013-05-21 10:45:00,
2013-05-21 05:50:00,73.9,71.1,29.90,SSE,161,0.0,0.0,91,0.00,,BKN033,0.00,VWS V14.01,2013-05-21 10:50:00,
2013-05-21 05:55:00,73.8,71.0,29.90,SSE,161,0.0,0.0,91,0.00,,BKN033,0.00,VWS V14.01,2013-05-21 10:55:00,
2013-05-21 06:00:00,73.7,70.9,29.91,SSE,161,0.0,0.0,91,0.00,,SCT033,0.00,VWS V14.01,2013-05-21 11:00:00,
2013-05-21 06:05:00,73.6,70.8,29.91,SSE,161,0.0,0.0,91,0.00,,SCT033,0.00,VWS V14.01,2013-05-21 11:05:00,
2013-05-21 06:10:00,73.6,70.8,29.91,SSE,161,0.0,0.0,91,0.00,,BKN012,0.00,VWS V14.01,2013-05-21 11:10:00,
2013-05-21 06:15:00,73.5,70.7,29.91,SSE,161,0.0,0.0,91,0.00,,BKN012,0.00,VWS V14.01,2013-05-21 11:15:00,
2013-05-21 06:20:00,73.4,70.6,29.91,SSE,161,0.0,0.0,91,0.00,,BKN012,0.00,VWS V14.01,2013-05-21 11:20:00,
2013-05-21 06:25:00,73.3,70.5,29.91,SSE,161,0.0,0.0,91,0.00,,BKN012,0.00,VWS V14.01,2013-05-21 11:25:00,
2013-05-21 06:30:00,73.3,70.5,29.91,SSE,161,0.0,0.0,91,0.00,,BKN012,0.00,VWS V14.01,2013-05-21 11:30:00,
2013-05-21 06:35:00,73.3,70.5,29.92,SSE,160,0.0,1.5,91,0.00,,BKN012,0.00,VWS V14.01,2013-05-21 11:35:00,
2013-05-21 06:40:00,73.3,70.5,29.92,SSE,160,0.0,3.0,91,0.00,,BKN012,0.00,VWS V14.01,2013-05-21 11:40:00,
2013-05-21 06:45:00,73.4,70.9,29.92,SSE,160,0.0,3.0,92,0.00,,BKN012,0.00,VWS V14.01,2013-05-21 11:45:00,
2013-05-21 06:50:00,73.5,71.0,29.92,SSE,160,0.0,0.0,92,0.00,,BKN012,0.00,VWS V14.01,2013-05-21 11:50:00,
2013-05-21 06:55:00,73.6,71.1,29.91,SSE,160,0.0,1.5,92,0.00,,BKN012,0.00,VWS V14.01,2013-05-21 11:55:00,
2013-05-21 07:00:00,73.6,71.1,29.91,SSE,159,0.0,1.5,92,0.00,,FEW010,0.00,VWS V14.01,2013-05-21 12:00:00,
2013-05-21 07:05:00,73.7,71.2,29.91,SSE,159,1.5,3.0,92,0.00,,FEW010,0.00,VWS V14.01,2013-05-21 12:05:00,
2013-05-21 07:10:00,73.7,70.9,29.91,SSE,159,1.5,1.5,91,0.00,,FEW010,0.00,VWS V14.01,2013-05-21 12:10:00,
2013-05-21 07:15:00,73.9,71.1,29.92,SSE,161,0.0,3.0,91,0.00,,FEW010,0.00,VWS V14.01,2013-05-21 12:15:00,
2013-05-21 07:20:00,74.0,71.2,29.92,SSE,166,0.0,4.5,91,0.00,,FEW010,0.00,VWS V14.01,2013-05-21 12:20:00,
2013-05-21 07:25:00,74.2,71.4,29.92,SSE,165,0.0,3.0,91,0.00,,FEW010,0.00,VWS V14.01,2013-05-21 12:25:00,
2013-05-21 07:30:00,74.4,71.6,29.92,SSE,166,0.0,3.0,91,0.00,,FEW010,0.00,VWS V14.01,2013-05-21 12:30:00,
2013-05-21 07:35:00,74.7,71.9,29.93,SSE,166,0.0,3.0,91,0.00,,FEW010,0.00,VWS V14.01,2013-05-21 12:35:00,
2013-05-21 07:40:00,75.3,72.5,29.93,South,186,1.5,4.5,91,0.00,,BKN010,0.00,VWS V14.01,2013-05-21 12:40:00,
2013-05-21 07:45:00,75.7,72.6,29.93,South,188,0.0,7.5,90,0.00,,BKN010,0.00,VWS V14.01,2013-05-21 12:45:00,
2013-05-21 07:50:00,76.0,72.9,29.93,South,188,1.5,1.5,90,0.00,,BKN010,0.00,VWS V14.01,2013-05-21 12:50:00,
2013-05-21 07:55:00,76.2,73.1,29.93,SSE,157,1.5,6.0,90,0.00,,BKN010,0.00,VWS V14.01,2013-05-21 12:55:00,
2013-05-21 08:00:00,76.4,73.2,29.93,SSE,160,1.5,4.5,90,0.00,,OVC020,0.00,VWS V14.01,2013-05-21 13:00:00,
2013-05-21 08:05:00,76.6,73.1,29.94,SSE,160,1.5,9.0,89,0.00,,OVC020,0.00,VWS V14.01,2013-05-21 13:05:00,
2013-05-21 08:10:00,76.8,73.3,29.94,SSW,196,3.0,4.5,89,0.00,,OVC020,0.00,VWS V14.01,2013-05-21 13:10:00,
2013-05-21 08:15:00,77.1,73.6,29.94,SSW,194,4.5,4.5,89,0.00,,OVC020,0.00,VWS V14.01,2013-05-21 13:15:00,
2013-05-21 08:20:00,77.4,73.6,29.94,SSW,192,3.0,7.5,88,0.00,,OVC020,0.00,VWS V14.01,2013-05-21 13:20:00,
2013-05-21 08:25:00,77.6,73.8,29.94,SSE,153,3.0,4.5,88,0.00,,OVC020,0.00,VWS V14.01,2013-05-21 13:25:00,
2013-05-21 08:30:00,77.9,74.1,29.94,South,186,1.5,6.0,88,0.00,,OVC020,0.00,VWS V14.01,2013-05-21 13:30:00,
2013-05-21 08:35:00,78.2,74.4,29.94,SW,227,1.5,6.0,88,0.00,,OVC020,0.00,VWS V14.01,2013-05-21 13:35:00,
2013-05-21 08:40:00,78.5,74.7,29.94,SSW,192,0.0,4.5,88,0.00,,OVC020,0.00,VWS V14.01,2013-05-21 13:40:00,
2013-05-21 08:45:00,78.9,74.4,29.94,WSW,239,4.5,7.5,86,0.00,,OVC020,0.00,VWS V14.01,2013-05-21 13:45:00,
2013-05-21 08:50:00,79.3,74.8,29.94,SSW,197,4.5,10.5,86,0.00,,OVC020,0.00,VWS V14.01,2013-05-21 13:50:00,
2013-05-21 08:55:00,79.4,74.8,29.93,SSE,165,1.5,6.0,86,0.00,,OVC020,0.00,VWS V14.01,2013-05-21 13:55:00,
2013-05-21 09:00:00,79.7,74.8,29.93,WSW,242,4.5,7.5,85,0.00,,BKN021,0.00,VWS V14.01,2013-05-21 14:00:00,
2013-05-21 09:05:00,79.7,74.4,29.94,South,185,6.0,7.5,84,0.00,,BKN021,0.00,VWS V14.01,2013-05-21 14:05:00,
2013-05-21 09:10:00,80.0,74.7,29.93,South,180,6.0,10.5,84,0.00,,BKN021,0.00,VWS V14.01,2013-05-21 14:10:00,
2013-05-21 09:15:00,80.1,74.1,29.93,SSE,150,1.5,7.5,82,0.00,,BKN021,0.00,VWS V14.01,2013-05-21 14:15:00,
2013-05-21 09:20:00,79.8,74.2,29.93,SW,224,4.5,10.5,83,0.00,,BKN021,0.00,VWS V14.01,2013-05-21 14:20:00,
2013-05-21 09:25:00,80.5,75.2,29.93,WSW,250,1.5,7.5,84,0.00,,BKN021,0.00,VWS V14.01,2013-05-21 14:25:00,
2013-05-21 09:30:00,81.3,75.3,29.93,SW,227,1.5,10.5,82,0.00,,BKN021,0.00,VWS V14.01,2013-05-21 14:30:00,
2013-05-21 09:35:00,81.7,74.9,29.93,South,171,1.5,10.5,80,0.00,,BKN021,0.00,VWS V14.01,2013-05-21 14:35:00,
2013-05-21 09:40:00,82.2,75.0,29.93,WSW,239,4.5,10.5,79,0.00,,BKN021,0.00,VWS V14.01,2013-05-21 14:40:00,
2013-05-21 09:45:00,82.3,74.4,29.93,SSW,194,6.0,13.5,77,0.00,,BKN021,0.00,VWS V14.01,2013-05-21 14:45:00,
2013-05-21 09:50:00,82.4,75.2,29.93,South,183,3.0,12.0,79,0.00,,BKN021,0.00,VWS V14.01,2013-05-21 14:50:00,
2013-05-21 09:55:00,82.1,74.6,29.93,SSW,192,6.0,10.5,78,0.00,,BKN021,0.00,VWS V14.01,2013-05-21 14:55:00,
2013-05-21 10:00:00,81.4,73.9,29.93,SW,221,4.5,9.0,78,0.00,,SCT028,0.00,VWS V14.01,2013-05-21 15:00:00,
2013-05-21 10:05:00,81.3,73.8,29.93,West,274,4.5,7.5,78,0.00,,SCT028,0.00,VWS V14.01,2013-05-21 15:05:00,
2013-05-21 10:10:00,81.7,73.8,29.93,SSW,205,6.0,13.5,77,0.00,,SCT028,0.00,VWS V14.01,2013-05-21 15:10:00,
2013-05-21 10:15:00,82.3,75.1,29.93,SSW,202,1.5,9.0,79,0.00,,SCT028,0.00,VWS V14.01,2013-05-21 15:15:00,
2013-05-21 10:20:00,82.7,74.8,29.93,SSW,192,1.5,7.5,77,0.00,,SCT028,0.00,VWS V14.01,2013-05-21 15:20:00,
2013-05-21 10:25:00,82.9,75.3,29.93,SW,219,4.5,10.5,78,0.00,,SCT028,0.00,VWS V14.01,2013-05-21 15:25:00,
2013-05-21 10:30:00,83.0,74.7,29.92,South,188,4.5,7.5,76,0.00,,SCT028,0.00,VWS V14.01,2013-05-21 15:30:00,
2013-05-21 10:35:00,83.0,75.1,29.92,South,186,4.5,10.5,77,0.00,,SCT028,0.00,VWS V14.01,2013-05-21 15:35:00,
2013-05-21 10:40:00,82.8,74.5,29.92,SW,219,1.5,9.0,76,0.00,,SCT028,0.00,VWS V14.01,2013-05-21 15:40:00,
2013-05-21 10:45:00,82.4,74.5,29.92,WSW,243,3.0,7.5,77,0.00,,SCT028,0.00,VWS V14.01,2013-05-21 15:45:00,
2013-05-21 10:50:00,82.5,74.9,29.92,WSW,258,6.0,10.5,78,0.00,,SCT028,0.00,VWS V14.01,2013-05-21 15:50:00,
2013-05-21 10:55:00,83.3,74.6,29.92,SW,218,12.0,12.0,75,0.00,,SCT028,0.00,VWS V14.01,2013-05-21 15:55:00,
2013-05-21 11:00:00,84.0,74.8,29.92,South,169,4.5,9.0,74,0.00,,BKN033,0.00,VWS V14.01,2013-05-21 16:00:00,
2013-05-21 11:05:00,84.6,74.6,29.92,WSW,258,6.0,9.0,72,0.00,,BKN033,0.00,VWS V14.01,2013-05-21 16:05:00,
2013-05-21 11:10:00,85.1,73.8,29.92,SSE,166,7.5,10.5,69,0.00,,BKN033,0.00,VWS V14.01,2013-05-21 16:10:00,
2013-05-21 11:15:00,85.3,74.0,29.92,South,178,6.0,10.5,69,0.00,,BKN033,0.00,VWS V14.01,2013-05-21 16:15:00,
2013-05-21 11:20:00,85.5,74.2,29.92,South,186,7.5,13.5,69,0.00,,BKN033,0.00,VWS V14.01,2013-05-21 16:20:00,
2013-05-21 11:25:00,85.5,74.6,29.92,SW,223,3.0,6.0,70,0.00,,BKN033,0.00,VWS V14.01,2013-05-21 16:25:00,
2013-05-21 11:30:00,85.2,73.9,29.92,WNW,283,3.0,10.5,69,0.00,,BKN033,0.00,VWS V14.01,2013-05-21 16:30:00,
2013-05-21 11:35:00,85.0,74.6,29.91,WSW,239,3.0,12.0,71,0.00,,BKN033,0.00,VWS V14.01,2013-05-21 16:35:00,
2013-05-21 11:40:00,85.2,74.7,29.92,WSW,237,3.0,9.0,71,0.00,,BKN033,0.00,VWS V14.01,2013-05-21 16:40:00,
2013-05-21 11:45:00,85.5,75.0,29.91,WNW,290,6.0,6.0,71,0.00,,BKN033,0.00,VWS V14.01,2013-05-21 16:45:00,
2013-05-21 11:50:00,86.3,75.8,29.91,SSW,213,12.0,12.0,71,0.00,,BKN033,0.00,VWS V14.01,2013-05-21 16:50:00,
2013-05-21 11:55:00,86.6,74.8,29.91,South,188,4.5,9.0,68,0.00,,BKN033,0.00,VWS V14.01,2013-05-21 16:55:00,
2013-05-21 12:00:00,85.9,74.6,29.91,SSW,195,10.5,10.5,69,0.00,,SCT046,0.00,VWS V14.01,2013-05-21 17:00:00,
2013-05-21 12:05:00,85.9,75.0,29.91,SW,227,1.5,15.0,70,0.00,,SCT046,0.00,VWS V14.01,2013-05-21 17:05:00,
2013-05-21 12:10:00,86.7,74.9,29.91,South,190,3.0,7.5,68,0.00,,SCT046,0.00,VWS V14.01,2013-05-21 17:10:00,
2013-05-21 12:15:00,86.9,74.2,29.91,NW,304,7.5,7.5,66,0.00,,SCT046,0.00,VWS V14.01,2013-05-21 17:15:00,
2013-05-21 12:20:00,86.9,75.5,29.91,SW,217,3.0,7.5,69,0.00,,SCT046,0.00,VWS V14.01,2013-05-21 17:20:00,
2013-05-21 12:25:00,87.0,74.3,29.91,WSW,240,3.0,15.0,66,0.00,,SCT046,0.00,VWS V14.01,2013-05-21 17:25:00,
2013-05-21 12:30:00,86.5,73.8,29.91,SW,220,7.5,10.5,66,0.00,,SCT046,0.00,VWS V14.01,2013-05-21 17:30:00,
2013-05-21 12:35:00,86.4,74.6,29.91,South,177,1.5,10.5,68,0.00,,SCT046,0.00,VWS V14.01,2013-05-21 17:35:00,
2013-05-21 12:40:00,86.7,75.3,29.91,West,262,0.0,7.5,69,0.00,,SCT046,0.00,VWS V14.01,2013-05-21 17:40:00,
2013-05-21 12:45:00,87.4,76.4,29.91,SSW,199,6.0,12.0,70,0.00,,SCT046,0.00,VWS V14.01,2013-05-21 17:45:00,
2013-05-21 12:50:00,87.6,74.4,29.90,WSW,241,7.5,13.5,65,0.00,,SCT046,0.00,VWS V14.01,2013-05-21 17:50:00,
2013-05-21 12:55:00,87.5,74.8,29.90,South,171,3.0,10.5,66,0.00,,SCT046,0.00,VWS V14.01,2013-05-21 17:55:00,
2013-05-21 13:00:00,87.5,74.8,29.90,South,187,4.5,10.5,66,0.00,,SCT041,0.00,VWS V14.01,2013-05-21 18:00:00,
2013-05-21 13:05:00,87.4,74.2,29.90,SSW,194,7.5,12.0,65,0.00,,SCT041,0.00,VWS V14.01,2013-05-21 18:05:00,
2013-05-21 13:10:00,87.2,74.9,29.90,SSE,162,7.5,13.5,67,0.00,,SCT041,0.00,VWS V14.01,2013-05-21 18:10:00,
2013-05-21 13:15:00,87.5,75.2,29.90,WSW,257,4.5,10.5,67,0.00,,SCT041,0.00,VWS V14.01,2013-05-21 18:15:00,
2013-05-21 13:20:00,87.4,73.7,29.89,South,187,1.5,15.0,64,0.00,,SCT041,0.00,VWS V14.01,2013-05-21 18:20:00,
2013-05-21 13:25:00,87.3,75.4,29.89,SSW,195,9.0,9.0,68,0.00,,SCT041,0.00,VWS V14.01,2013-05-21 18:25:00,
2013-05-21 13:30:00,87.2,74.0,29.89,SW,236,4.5,10.5,65,0.00,,SCT041,0.00,VWS V14.01,2013-05-21 18:30:00,
2013-05-21 13:35:00,87.5,74.8,29.89,WSW,250,3.0,10.5,66,0.00,,SCT041,0.00,VWS V14.01,2013-05-21 18:35:00,
2013-05-21 13:40:00,88.0,75.2,29.89,WSW,257,6.0,15.0,66,0.00,,SCT041,0.00,VWS V14.01,2013-05-21 18:40:00,
2013-05-21 13:45:00,88.3,74.1,29.89,SW,219,4.5,12.0,63,0.00,,SCT041,0.00,VWS V14.01,2013-05-21 18:45:00,
2013-05-21 13:50:00,88.7,75.4,29.89,SW,219,6.0,7.5,65,0.00,,SCT041,0.00,VWS V14.01,2013-05-21 18:50:00,
2013-05-21 13:55:00,88.7,75.0,29.89,South,190,4.5,13.5,64,0.00,,SCT041,0.00,VWS V14.01,2013-05-21 18:55:00,
2013-05-21 14:00:00,88.9,75.6,29.88,SW,221,3.0,13.5,65,0.00,,BKN050,0.00,VWS V14.01,2013-05-21 19:00:00,
2013-05-21 14:05:00,88.6,74.4,29.88,South,190,6.0,13.5,63,0.00,,BKN050,0.00,VWS V14.01,2013-05-21 19:05:00,
2013-05-21 14:10:00,87.8,74.6,29.88,WSW,248,0.0,9.0,65,0.00,,BKN050,0.00,VWS V14.01,2013-05-21 19:10:00,
2013-05-21 14:15:00,87.8,75.5,29.88,SSW,201,1.5,9.0,67,0.00,,BKN050,0.00,VWS V14.01,2013-05-21 19:15:00,
2013-05-21 14:20:00,88.5,74.8,29.88,SSW,213,4.5,10.5,64,0.00,,BKN050,0.00,VWS V14.01,2013-05-21 19:20:00,
2013-05-21 14:25:00,88.5,74.8,29.87,West,267,7.5,12.0,64,0.00,,BKN050,0.00,VWS V14.01,2013-05-21 19:25:00,
2013-05-21 14:30:00,88.8,75.1,29.87,South,184,4.5,10.5,64,0.00,,BKN050,0.00,VWS V14.01,2013-05-21 19:30:00,
2013-05-21 14:35:00,89.2,75.4,29.87,SW,217,3.0,12.0,64,0.00,,BKN050,0.00,VWS V14.01,2013-05-21 19:35:00,
2013-05-21 14:40:00,89.0,74.8,29.87,WSW,251,7.5,12.0,63,0.00,,BKN050,0.00,VWS V14.01,2013-05-21 19:40:00,
2013-05-21 14:45:00,88.2,74.0,29.87,SW,217,1.5,10.5,63,0.00,,BKN050,0.00,VWS V14.01,2013-05-21 19:45:00,
2013-05-21 14:50:00,87.9,75.6,29.87,West,262,3.0,9.0,67,0.00,,BKN050,0.00,VWS V14.01,2013-05-21 19:50:00,
2013-05-21 14:55:00,88.5,74.8,29.87,SW,215,4.5,10.5,64,0.00,,BKN050,0.00,VWS V14.01,2013-05-21 19:55:00,
2013-05-21 15:00:00,88.4,74.2,29.86,South,188,7.5,12.0,63,0.00,,BKN050,0.00,VWS V14.01,2013-05-21 20:00:00,
2013-05-21 15:05:00,88.6,74.9,29.86,West,267,12.0,13.5,64,0.00,,FEW060,0.00,VWS V14.01,2013-05-21 20:05:00,
2013-05-21 15:10:00,89.0,74.8,29.86,South,169,1.5,12.0,63,0.00,,FEW060,0.00,VWS V14.01,2013-05-21 20:10:00,
2013-05-21 15:15:00,89.2,75.9,29.86,SW,219,0.0,12.0,65,0.00,,FEW060,0.00,VWS V14.01,2013-05-21 20:15:00,
2013-05-21 15:20:00,89.7,76.8,29.86,SSW,199,7.5,10.5,66,0.00,,FEW060,0.00,VWS V14.01,2013-05-21 20:20:00,
2013-05-21 15:25:00,89.3,75.5,29.86,SW,229,9.0,9.0,64,0.00,,FEW060,0.00,VWS V14.01,2013-05-21 20:25:00,
2013-05-21 15:30:00,89.0,76.2,29.86,South,176,1.5,10.5,66,0.00,,FEW060,0.00,VWS V14.01,2013-05-21 20:30:00,
2013-05-21 15:35:00,88.7,75.4,29.86,SW,215,4.5,12.0,65,0.00,,FEW060,0.00,VWS V14.01,2013-05-21 20:35:00,
2013-05-21 15:40:00,88.1,74.9,29.85,SSW,200,3.0,9.0,65,0.00,,FEW060,0.00,VWS V14.01,2013-05-21 20:40:00,
2013-05-21 15:45:00,88.3,74.1,29.85,SSW,200,10.5,13.5,63,0.00,,FEW060,0.00,VWS V14.01,2013-05-21 20:45:00,
2013-05-21 15:50:00,88.6,74.9,29.85,SSW,208,4.5,10.5,64,0.00,,FEW060,0.00,VWS V14.01,2013-05-21 20:50:00,
2013-05-21 15:55:00,88.7,75.0,29.85,SSW,199,0.0,7.5,64,0.00,,FEW060,0.00,VWS V14.01,2013-05-21 20:55:00,
2013-05-21 16:00:00,88.6,73.9,29.85,WSW,240,7.5,12.0,62,0.00,,BKN045,0.00,VWS V14.01,2013-05-21 21:00:00,
2013-05-21 16:05:00,88.1,74.4,29.85,WSW,250,1.5,10.5,64,0.00,,BKN045,0.00,VWS V14.01,2013-05-21 21:05:00,
2013-05-21 16:10:00,88.3,73.6,29.84,SSW,194,3.0,9.0,62,0.00,,BKN045,0.00,VWS V14.01,2013-05-21 21:10:00,
2013-05-21 16:15:00,88.6,73.9,29.84,SSW,206,6.0,13.5,62,0.00,,BKN045,0.00,VWS V14.01,2013-05-21 21:15:00,
2013-05-21 16:20:00,89.1,74.4,29.84,SW,229,3.0,10.5,62,0.00,,BKN045,0.00,VWS V14.01,2013-05-21 21:20:00,
2013-05-21 16:25:00,89.2,74.0,29.83,SE,139,9.0,15.0,61,0.00,,BKN045,0.00,VWS V14.01,2013-05-21 21:25:00,
2013-05-21 16:30:00,88.8,73.1,29.83,South,178,1.5,9.0,60,0.00,,BKN045,0.00,VWS V14.01,2013-05-21 21:30:00,
2013-05-21 16:35:00,88.4,71.8,29.83,WSW,248,4.5,15.0,58,0.00,,BKN045,0.00,VWS V14.01,2013-05-21 21:35:00,
2013-05-21 16:40:00,88.4,72.8,29.82,WSW,250,4.5,13.5,60,0.00,,BKN045,0.00,VWS V14.01,2013-05-21 21:40:00,
2013-05-21 16:45:00,88.7,72.0,29.82,WNW,282,1.5,9.0,58,0.00,,BKN045,0.00,VWS V14.01,2013-05-21 21:45:00,
2013-05-21 16:50:00,88.6,71.9,29.82,SW,221,10.5,15.0,58,0.00,,BKN045,0.00,VWS V14.01,2013-05-21 21:50:00,
2013-05-21 16:55:00,88.7,73.0,29.82,WSW,251,4.5,9.0,60,0.00,,BKN045,0.00,VWS V14.01,2013-05-21 21:55:00,
2013-05-21 17:00:00,88.7,73.5,29.82,SW,219,3.0,10.5,61,0.00,,BKN045,0.00,VWS V14.01,2013-05-21 22:00:00,
2013-05-21 17:05:00,89.1,73.9,29.82,SW,233,15.0,15.0,61,0.00,,BKN045,0.00,VWS V14.01,2013-05-21 22:05:00,
2013-05-21 17:10:00,88.9,73.2,29.82,SSW,212,0.0,15.0,60,0.00,,BKN045,0.00,VWS V14.01,2013-05-21 22:10:00,
2013-05-21 17:15:00,88.8,73.1,29.81,SW,230,6.0,10.5,60,0.00,,BKN045,0.00,VWS V14.01,2013-05-21 22:15:00,
2013-05-21 17:20:00,88.8,73.1,29.81,WSW,238,1.5,9.0,60,0.00,,BKN045,0.00,VWS V14.01,2013-05-21 22:20:00,
2013-05-21 17:25:00,89.0,73.8,29.81,SW,219,6.0,10.5,61,0.00,,BKN045,0.00,VWS V14.01,2013-05-21 22:25:00,
2013-05-21 17:30:00,88.8,73.6,29.81,SSW,213,4.5,10.5,61,0.00,,BKN045,0.00,VWS V14.01,2013-05-21 22:30:00,
2013-05-21 17:35:00,87.9,73.7,29.81,South,181,7.5,12.0,63,0.00,,BKN045,0.00,VWS V14.01,2013-05-21 22:35:00,
2013-05-21 17:40:00,86.8,73.2,29.81,South,177,7.5,13.5,64,0.00,,BKN045,0.00,VWS V14.01,2013-05-21 22:40:00,
2013-05-21 17:45:00,86.4,73.7,29.80,SW,224,3.0,10.5,66,0.00,,BKN045,0.00,VWS V14.01,2013-05-21 22:45:00,
2013-05-21 17:50:00,86.5,73.8,29.80,SSW,198,1.5,13.5,66,0.00,,BKN045,0.00,VWS V14.01,2013-05-21 22:50:00,
2013-05-21 17:55:00,86.6,74.3,29.80,SW,223,7.5,16.5,67,0.00,,BKN045,0.00,VWS V14.01,2013-05-21 22:55:00,
2013-05-21 18:00:00,86.5,75.1,29.79,SW,214,12.0,12.0,69,0.00,,BKN045,0.00,VWS V14.01,2013-05-21 23:00:00,
2013-05-21 18:05:00,86.3,74.5,29.79,South,178,7.5,15.0,68,0.00,,CLR,0.00,VWS V14.01,2013-05-21 23:05:00,
2013-05-21 18:10:00,86.0,74.7,29.79,South,182,7.5,12.0,69,0.00,,CLR,0.00,VWS V14.01,2013-05-21 23:10:00,
2013-05-21 18:15:00,85.7,74.4,29.79,South,188,3.0,13.5,69,0.00,,CLR,0.00,VWS V14.01,2013-05-21 23:15:00,
2013-05-21 18:20:00,85.4,73.6,29.79,SSW,207,10.5,12.0,68,0.00,,CLR,0.00,VWS V14.01,2013-05-21 23:20:00,
2013-05-21 18:25:00,85.2,73.9,29.79,SSW,195,4.5,12.0,69,0.00,,CLR,0.00,VWS V14.01,2013-05-21 23:25:00,
2013-05-21 18:30:00,84.9,73.6,29.79,SSW,199,4.5,12.0,69,0.00,,CLR,0.00,VWS V14.01,2013-05-21 23:30:00,
2013-05-21 18:35:00,84.6,73.7,29.79,SSW,200,0.0,10.5,70,0.00,,CLR,0.00,VWS V14.01,2013-05-21 23:35:00,
2013-05-21 18:40:00,84.3,73.5,29.79,SSW,211,4.5,15.0,70,0.00,,CLR,0.00,VWS V14.01,2013-05-21 23:40:00,
2013-05-21 18:45:00,84.2,73.4,29.79,SSW,197,6.0,13.5,70,0.00,,CLR,0.00,VWS V14.01,2013-05-21 23:45:00,
2013-05-21 18:50:00,84.0,73.2,29.79,SW,229,19.5,19.5,70,0.00,,CLR,0.00,VWS V14.01,2013-05-21 23:50:00,
2013-05-21 18:55:00,83.7,73.3,29.79,SSW,205,7.5,9.0,71,0.00,,CLR,0.00,VWS V14.01,2013-05-21 23:55:00,
2013-05-21 19:00:00,83.6,73.2,29.79,SSW,206,7.5,15.0,71,0.00,,CLR,0.00,VWS V14.01,2013-05-22 00:00:00,
2013-05-21 19:05:00,83.3,73.3,29.79,SW,221,3.0,10.5,72,0.00,,SCT035,0.00,VWS V14.01,2013-05-22 00:05:00,
2013-05-21 19:10:00,83.1,73.6,29.79,South,186,6.0,16.5,73,0.00,,SCT035,0.00,VWS V14.01,2013-05-22 00:10:00,
2013-05-21 19:15:00,82.8,73.3,29.80,South,182,7.5,9.0,73,0.00,,SCT035,0.00,VWS V14.01,2013-05-22 00:15:00,
2013-05-21 19:20:00,82.5,73.4,29.80,South,172,6.0,13.5,74,0.00,,SCT035,0.00,VWS V14.01,2013-05-22 00:20:00,
2013-05-21 19:25:00,82.3,73.2,29.80,SSE,163,7.5,19.5,74,0.00,,SCT035,0.00,VWS V14.01,2013-05-22 00:25:00,
2013-05-21 19:30:00,82.0,72.9,29.80,SSE,167,3.0,10.5,74,0.00,,SCT035,0.00,VWS V14.01,2013-05-22 00:30:00,
2013-05-21 19:35:00,81.8,73.1,29.81,SSE,163,12.0,16.5,75,0.00,,SCT035,0.00,VWS V14.01,2013-05-22 00:35:00,
2013-05-21 19:40:00,81.6,72.9,29.81,SW,222,1.5,6.0,75,0.00,,SCT035,0.00,VWS V14.01,2013-05-22 00:40:00,
2013-05-21 19:45:00,81.4,73.1,29.81,SSW,213,9.0,12.0,76,0.00,,SCT035,0.00,VWS V14.01,2013-05-22 00:45:00,
2013-05-21 19:50:00,81.2,72.9,29.81,South,183,3.0,10.5,76,0.00,,SCT035,0.00,VWS V14.01,2013-05-22 00:50:00,
2013-05-21 19:55:00,81.0,73.1,29.81,SSW,200,0.0,12.0,77,0.00,,SCT035,0.00,VWS V14.01,2013-05-22 00:55:00,
2013-05-21 20:00:00,80.8,72.9,29.81,SSW,194,4.5,7.5,77,0.00,,SCT035,0.00,VWS V14.01,2013-05-22 01:00:00,
2013-05-21 20:05:00,80.6,73.1,29.81,SSE,162,3.0,10.5,78,0.00,,SCT035,0.00,VWS V14.01,2013-05-22 01:05:00,
2013-05-21 20:10:00,80.4,72.9,29.82,South,182,6.0,6.0,78,0.00,,SCT035,0.00,VWS V14.01,2013-05-22 01:10:00,
2013-05-21 20:15:00,80.3,73.2,29.83,SSW,196,1.5,7.5,79,0.00,,SCT035,0.00,VWS V14.01,2013-05-22 01:15:00,
2013-05-21 20:20:00,80.1,73.0,29.83,SSE,164,7.5,7.5,79,0.00,,SCT035,0.00,VWS V14.01,2013-05-22 01:20:00,
2013-05-21 20:25:00,80.0,73.3,29.83,SSW,208,3.0,6.0,80,0.00,,SCT035,0.00,VWS V14.01,2013-05-22 01:25:00,
2013-05-21 20:30:00,79.8,73.1,29.84,SW,226,0.0,7.5,80,0.00,,SCT035,0.00,VWS V14.01,2013-05-22 01:30:00,
2013-05-21 20:35:00,79.7,73.0,29.84,SSW,198,1.5,7.5,80,0.00,,SCT035,0.00,VWS V14.01,2013-05-22 01:35:00,
2013-05-21 20:40:00,79.5,73.2,29.84,SSW,198,0.0,3.0,81,0.00,,SCT035,0.00,VWS V14.01,2013-05-22 01:40:00,
2013-05-21 20:45:00,79.3,73.0,29.84,SW,219,4.5,6.0,81,0.00,,SCT035,0.00,VWS V14.01,2013-05-22 01:45:00,
2013-05-21 20:50:00,79.1,73.1,29.85,SW,219,4.5,7.5,82,0.00,,SCT035,0.00,VWS V14.01,2013-05-22 01:50:00,
2013-05-21 20:55:00,78.9,72.9,29.85,SW,234,1.5,6.0,82,0.00,,SCT035,0.00,VWS V14.01,2013-05-22 01:55:00,
2013-05-21 21:00:00,78.8,72.8,29.84,SSW,200,3.0,7.5,82,0.00,,SCT035,0.00,VWS V14.01,2013-05-22 02:00:00,
2013-05-21 21:05:00,78.7,73.1,29.84,South,182,4.5,6.0,83,0.00,,BKN046,0.00,VWS V14.01,2013-05-22 02:05:00,
2013-05-21 21:10:00,78.5,72.9,29.83,SSW,207,0.0,10.5,83,0.00,,BKN046,0.00,VWS V14.01,2013-05-22 02:10:00,
2013-05-21 21:15:00,78.4,72.8,29.84,WSW,242,1.5,9.0,83,0.00,,BKN046,0.00,VWS V14.01,2013-05-22 02:15:00,
2013-05-21 21:20:00,78.2,73.0,29.84,South,188,3.0,6.0,84,0.00,,BKN046,0.00,VWS V14.01,2013-05-22 02:20:00,
2013-05-21 21:25:00,78.1,72.9,29.85,SSW,195,3.0,6.0,84,0.00,,BKN046,0.00,VWS V14.01,2013-05-22 02:25:00,
2013-05-21 21:30:00,78.0,72.8,29.85,SSW,193,1.5,6.0,84,0.00,,BKN046,0.00,VWS V14.01,2013-05-22 02:30:00,
2013-05-21 21:35:00,78.0,72.8,29.85,SW,217,0.0,4.5,84,0.00,,BKN046,0.00,VWS V14.01,2013-05-22 02:35:00,
2013-05-21 21:40:00,77.8,72.6,29.85,SSW,196,0.0,10.5,84,0.00,,BKN046,0.00,VWS V14.01,2013-05-22 02:40:00,
2013-05-21 21:45:00,77.7,72.5,29.85,South,191,0.0,6.0,84,0.00,,BKN046,0.00,VWS V14.01,2013-05-22 02:45:00,
2013-05-21 21:50:00,77.6,72.7,29.86,SSW,196,0.0,3.0,85,0.00,,BKN046,0.00,VWS V14.01,2013-05-22 02:50:00,
2013-05-21 21:55:00,77.5,72.6,29.86,SSW,195,0.0,1.5,85,0.00,,BKN046,0.00,VWS V14.01,2013-05-22 02:55:00,
2013-05-21 22:00:00,77.4,72.5,29.87,SSW,195,1.5,3.0,85,0.00,,BKN046,0.00,VWS V14.01,2013-05-22 03:00:00,
2013-05-21 22:05:00,77.3,72.4,29.87,SSW,193,0.0,1.5,85,0.00,,BKN060,0.00,VWS V14.01,2013-05-22 03:05:00,
2013-05-21 22:10:00,77.2,72.3,29.87,SSW,199,1.5,6.0,85,0.00,,BKN060,0.00,VWS V14.01,2013-05-22 03:10:00,
2013-05-21 22:15:00,77.2,72.3,29.87,SSW,198,0.0,6.0,85,0.00,,BKN060,0.00,VWS V14.01,2013-05-22 03:15:00,
2013-05-21 22:20:00,77.3,72.4,29.87,SSW,194,1.5,6.0,85,0.00,,BKN060,0.00,VWS V14.01,2013-05-22 03:20:00,
2013-05-21 22:25:00,77.2,72.7,29.87,SSE,163,1.5,4.5,86,0.00,,BKN060,0.00,VWS V14.01,2013-05-22 03:25:00,
2013-05-21 22:30:00,77.1,72.6,29.87,South,170,0.0,4.5,86,0.00,,BKN060,0.00,VWS V14.01,2013-05-22 03:30:00,
2013-05-21 22:35:00,77.0,72.5,29.88,South,171,0.0,1.5,86,0.00,,BKN060,0.00,VWS V14.01,2013-05-22 03:35:00,
2013-05-21 22:40:00,76.8,72.3,29.88,South,171,0.0,0.0,86,0.00,,BKN060,0.00,VWS V14.01,2013-05-22 03:40:00,
2013-05-21 22:45:00,76.7,72.5,29.88,South,171,0.0,0.0,87,0.00,,BKN060,0.00,VWS V14.01,2013-05-22 03:45:00,
2013-05-21 22:50:00,76.6,72.4,29.88,South,171,0.0,0.0,87,0.00,,BKN060,0.00,VWS V14.01,2013-05-22 03:50:00,
2013-05-21 22:55:00,76.5,72.3,29.88,South,170,0.0,0.0,87,0.00,,BKN060,0.00,VWS V14.01,2013-05-22 03:55:00,
2013-05-21 23:00:00,76.5,72.7,29.88,South,171,1.5,1.5,88,0.00,,BKN060,0.00,VWS V14.01,2013-05-22 04:00:00,
2013-05-21 23:01:00,76.5,72.7,29.88,South,171,0.0,1.5,88,0.00,,BKN065,0.00,VWS V14.01,2013-05-22 04:01:00,
2013-05-21 23:06:00,76.5,72.7,29.88,South,170,1.5,1.5,88,0.00,,BKN065,0.00,VWS V14.01,2013-05-22 04:06:00,
2013-05-21 23:11:00,76.6,72.8,29.89,SSW,194,1.5,4.5,88,0.00,,BKN065,0.00,VWS V14.01,2013-05-22 04:11:00,
2013-05-21 23:16:00,76.6,72.4,29.89,South,189,0.0,3.0,87,0.00,,BKN065,0.00,VWS V14.01,2013-05-22 04:16:00,
2013-05-21 23:21:00,76.7,72.5,29.89,South,184,0.0,4.5,87,0.00,,BKN065,0.00,VWS V14.01,2013-05-22 04:21:00,
2013-05-21 23:26:00,76.7,72.5,29.89,South,184,1.5,3.0,87,0.00,,BKN065,0.00,VWS V14.01,2013-05-22 04:26:00,
2013-05-21 23:31:00,76.6,72.4,29.89,South,177,1.5,4.5,87,0.00,,BKN065,0.00,VWS V14.01,2013-05-22 04:31:00,
2013-05-21 23:36:00,76.6,72.4,29.88,South,176,1.5,4.5,87,0.00,,BKN065,0.00,VWS V14.01,2013-05-22 04:36:00,
2013-05-21 23:41:00,76.5,72.3,29.89,South,177,0.0,3.0,87,0.00,,BKN065,0.00,VWS V14.01,2013-05-22 04:41:00,
2013-05-21 23:46:00,76.5,72.7,29.89,South,176,0.0,1.5,88,0.00,,BKN065,0.00,VWS V14.01,2013-05-22 04:46:00,
2013-05-21 23:51:00,76.4,72.6,29.89,South,177,0.0,3.0,88,0.00,,BKN065,0.00,VWS V14.01,2013-05-22 04:51:00,
2013-05-21 23:56:00,76.2,72.4,29.89,South,176,0.0,1.5,88,0.00,,BKN065,0.00,VWS V14.01,2013-05-22 04:56:00,